sat.trackr.live / text

‹ back to catalog

STARLINK-4212

NORAD 52846 · 2022-062S

PAYLOAD ACTIVE UNKNOWN

§ Identity

Operator
Country
US
Launch date
2022-06-17
Launch site
AFETR
Launch vehicle
Mass (kg)
RCS (m²)

Purposes: comms

External: N2YO · Heavens-Above · Gunter

§ Orbital elements

Epoch: 2026-05-25T03:59:32.246016Z

Period
95.44 min
Inclination
53.2130°
Eccentricity
0.0001731
Mean motion
15.08843344 rev/d
Perigee alt
538.5 km
Apogee alt
540.9 km
Semi-major
6,917.9 km
B*
-8.0471e-5
RAAN
50.8137°
Arg perigee
87.7242°
Mean anomaly
272.3948°
Rev number
21,733

§ Raw data

STARLINK-42121 52846U 22062S   26145.16634544 -.00001569  00000+0 -80471-4 0  99942 52846  53.2130  50.8137 0001731  87.7242 272.3948 15.08843344217338

JSON: /api/v1/satellites/52846 · /tle

For live sub-satellite position, see the globe view (requires WebGL).

§ Visibility from observer

Set your observer location to see the next 7 days of passes ≥ 10°. The values pass through the URL so the page stays shareable.

No JS? Fill the form by hand. The geolocation button needs JavaScript.